SCP
0 0 0 0 0 0 0 0 0 0 0 0 0 0 0 0 0 0 0 0 0 0 0 0 0 0 0 0 0 0 0 0 0 0 0 0 0 0 0 0 0 0 0 0 0 0 0 0 0 0 0 0 0 0
-0 0 0 0 0 0 0 0 0 0 0 0 0 0 0 0 0 0 0 0 0 0 0 0 0 0 0 0 0 0 0 0 0 0 0 0 0 0 0 0 0 0 0 0 0 0 0 0 0 0 0 0 0 0
0 -0 -0 0 0 0 0 0 0 0 0 0 0 0 0 0 0 0 0 0 0 0 0 0 0 0 0 0 0 0 0 0 0 0 0 0 0 0 0 0 0 0 0 0 0 0 0 0 0 0 0 0 0 0
0 0 0 0 0 0 0 0 0 0 0 0 0 0 0 0 0 0 0 0 0 0 0 0 0 0 0 0 0 0 0 0 0 0 0 0 0 0 0 0 0 0 0 0 0 0 0 0 0 0 0 0 0 0
0 0 0 0 0 0 0 0 0 0 0 0 0 0 0 0 0 0 0 0 0 0 0 0 0 0 0 0 0 0 0 0 0 0 0 0 0 0 0 0 0 0 0 0 0 0 0 0 0 0 0 0 0 0
0 -0 0 0 0 0 0 0 0 0 0 0 0 0 0 0 0 0 0 0 0 0 0 0 0 0 0 0 0 0 0 0 0 0 0 0 0 0 0 0 0 0 0 0 0 0 0 0 0 0 0 0 0 0
0 0 -0 0 0 0 0 0 0 0 0 0 0 0 0 0 0 0 0 0 -0 0 0 0 0 0 0 0 0 0 0 0 0 0 0 0 0 0 0 0 0 0 0 0 0 0 0 0 0 0 0 0 0 0
-0 0 0 0 0 0 0 0 0 0 0 0 0 0 0 0 0 0 0 0 0 0 0 0 0 0 0 0 0 0 0 0 0 0 0 0 0 0 0 0 0 0 0 0 0 0 0 0 0 0 0 0 0 0
-0 -0 0 0 -0 -0 0 0 0 0 0 0 0 0 0 0 0 0 0 0 0 0 0 0 0 0 0 0 0 0 0 0 0 0 0 0 0 0 0 0 0 0 0 0 0 0 0 0 0 0 0 0 0 0
-0 0 0 0 0 -0 -0 -0 -0 0 -0 -0 0 0 0 0 0 0 0 0 0 -0 0 0 0 0 0 0 0 0 0 0 0 0 0 0 0 0 0 0 0 0 0 0 0 0 0 0 0 0 0 0 0 0
0 -0 -0 -0 -0 -0 -0 -0 -0 -0 -0 0 0 0 0 0 0 0 0 0 0 0 0 0 0 0 0 0 0 0 0 0 0 0 0 0 0 0 0 0 0 0 0 0 0 0 0 0 0 0 0 0 0 0
-0 -0 -0 -0 -0 -0 -0 -0 -0 -0 -0 0 0 0 0 0 0 0 0 0 0 0 0 0 0 0 0 0 0 0 0 0 0 0 0 0 0 0 0 0 0 0 0 0 0 0 0 0 0 0 0 0 0 0
-0 -0 -0 -0 -0 -0 -0 0 -0 0 0 0 0 0 0 0 0 0 0 0 0 0 0 0 0 0 0 0 0 0 0 0 0 0 0 0 0 0 0 0 0 0 0 0 0 0 0 0 0 0 0 0 0 0
-0 -0 -0 -0 -0 -0 -0 -0 -0 0 0 0 0 0 0 0 0 0 0 0 0 0 0 0 0 0 0 0 0 0 0 0 0 0 0 0 0 0 0 0 0 0 0 0 0 0 0 0 0 0 0 0 0 0
-0 0 -0 -0 -0 -0 -0 -0 0 0 0 0 0 0 0 0 0 0 0 0 0 0 0 0 0 0 0 0 0 0 0 0 0 0 0 0 0 0 0 0 0 0 0 0 0 0 0 0 0 0 0 0 0 0
0 0 0 -0 -0 -0 0 -0 0 0 0 0 0 0 0 0 0 0 0 0 0 0 0 0 0 0 0 0 0 0 0 0 0 0 0 0 0 0 0 0 0 0 0 0 0 0 0 0 0 0 0 0 0 0
-0 -0 -0 -0 -0 0 -0 -0 -0 0 0 0 0 0 0 0 0 0 0 0 0 0 0 0 0 0 0 0 0 0 0 0 0 0 0 0 0 0 0 0 0 0 0 0 0 0 0 0 0 0 0 0 0 0
-0 0 0 -0 0 0 0 0 -0 0 0 0 0 0 0 0 0 0 0 0 0 0 0 0 0 0 0 0 0 0 0 0 0 0 0 0 0 0 0 0 0 0 0 0 0 0 0 0 0 0 0 0 0 0
0 0 0 0 0 0 0 0 0 0 0 0 0 0 0 0 0 0 0 0 0 0 0 0 0 0 0 0 0 0 0 0 0 0 0 0 0 0 0 0 0 0 0 0 0 0 0 0 0 0 0 0 0 0
0 0 0 0 0 0 0 0 0 0 0 0 0 0 0 0 0 0 0 0 0 0 0 0 0 0 0 0 0 0 0 0 0 0 0 0 0 0 0 0 0 0 0 0 0 0 0 0 0 0 0 0 0 0
0 0 0 0 0 0 0 0 0 0 0 0 0 0 0 0 0 0 0 0 0 0 0 0 0 0 0 0 0 0 0 0 0 0 0 0 0 0 0 0 0 0 0 0 0 0 0 0 0 0 0 0 0 0
0 0 0 0 0 0 0 0 0 0 0 0 0 0 0 0 0 0 0 0 0 0 0 0 0 0 0 0 0 0 0 0 0 0 0 0 0 0 0 0 0 0 0 0 0 0 0 0 0 0 0 0 0 0
0 0 0 0 0 0 0 0 0 0 0 0 0 0 0 0 0 0 0 0 0 0 0 0 0 0 0 0 0 0 0 0 0 0 0 0 0 0 0 0 0 0 0 0 0 0 0 0 0 0 0 0 0 0
0 0 0 0 0 0 0 0 0 0 0 0 0 0 0 0 0 0 0 0 0 0 0 0 0 0 0 0 0 0 0 0 0 0 0 0 0 0 0 0 0 0 0 0 0 0 0 0 0 0 0 0 0 0
0 0 0 0 0 0 0 0 0 0 0 0 0 0 0 0 0 0 0 0 0 0 0 0 0 0 0 0 0 0 0 0 0 0 0 0 0 0 0 0 0 0 0 0 0 0 0 0 0 0 0 0 0 0
0 0 0 0 0 0 0 0 0 0 0 0 0 0 0 0 0 0 0 0 0 0 0 0 0 0 0 0 0 0 0 0 0 0 0 0 0 0 0 0 0 0 0 0 0 0 0 0 0 0 0 0 0 0
0 0 0 0 0 0 0 0 0 0 0 0 0 0 0 0 0 0 0 0 0 0 0 0 0 0 0 0 0 0 0 0 0 0 0 0 0 0 0 0 0 0 0 0 0 0 0 0 0 0 0 0 0 0
0 0 0 0 0 0 0 0 0 0 0 0 0 0 0 0 0 0 0 0 0 0 0 0 0 0 0 0 0 0 0 0 0 0 0 0 0 0 0 0 0 0 0 0 0 0 0 0 0 0 0 0 0 0
0 0 0 0 0 0 0 0 0 0 0 0 0 0 0 0 0 0 0 0 0 0 0 0 0 0 0 0 0 0 0 0 0 0 0 0 0 0 0 0 0 0 0 0 0 0 0 0 0 0 0 0 0 0
0 0 0 0 0 0 0 0 0 0 -0 0 0 0 0 0 -0 -0 -0 0 0 0 0 0 0 0 0 0 0 0 0 0 0 0 0 0 0 0 0 0 -0 -0 -0 0 0 0 0 0 0 0 0 0 0 0
0 0 0 0 0 0 0 0 0 0 0 0 0 -0 -0 0 -0 -0 -0 -0 -0 0 0 0 0 0 0 0 0 0 0 0 0 0 0 0 0 0 0 0 0 0 0 0 0 0 0 0 0 0 0 0 0 0
0 0 0 0 0 0 0 0 0 0 0 0 0 0 0 0 0 0 0 -0 -0 0 -0 0 0 0 0 0 0 0 0 0 0 -0 0 0 0 0 0 0 0 0 0 0 0 0 0 0 0 0 0 0 0 0
0 0 0 0 0 0 0 0 0 0 0 0 0 0 0 0 0 0 0 -0 -0 -0 -0 -0 -0 0 0 0 0 0 0 0 0 0 0 0 0 0 0 0 0 0 0 0 0 0 0 0 0 0 0 0 0 0
Wind_Speed_500mb
57 56 59 56 57 55 52 49 48 48 50 53 54 55 68 55 67 48 79 69 82 32 33 48 58 38 21 35 9 14 13 5 3 7 7 8 6 10 5 10 13 15 16 10 7 8 22 32 5 15 7 2 4 16
60 60 58 62 60 54 54 51 50 52 52 54 56 54 55 69 59 59 56 78 75 57 19 66 52 63 62 55 44 41 11 15 21 6 1 6 1 2 9 6 5 3 13 10 18 14 18 6 11 15 5 8 32 36
62 64 65 62 61 61 61 58 55 54 55 58 58 56 60 58 63 55 58 50 72 73 40 40 66 72 64 57 50 25 15 17 21 14 15 5 6 6 7 11 2 9 6 7 7 16 18 26 24 15 32 20 35 39
64 69 66 64 60 59 59 58 56 55 55 57 58 55 57 59 58 56 64 57 62 35 18 25 76 72 75 74 59 52 36 41 23 21 7 5 5 12 5 6 8 14 6 6 7 14 14 26 31 38 39 52 56 51
58 62 68 66 61 59 58 58 55 53 54 57 58 57 55 55 58 59 58 61 58 40 9 15 47 78 78 74 76 63 50 45 41 12 5 5 7 5 4 3 6 14 9 5 8 17 13 34 62 69 70 73 59 56
51 54 62 67 65 59 55 57 54 54 54 55 56 55 57 57 52 50 41 66 72 68 13 7 23 52 76 80 77 70 60 49 38 20 9 11 11 17 5 7 33 49 34 45 46 56 47 53 57 61 62 57 54 40
44 40 51 59 65 60 57 56 56 56 59 59 56 56 54 54 60 70 24 15 35 58 20 6 6 34 78 73 63 54 58 46 28 19 15 15 15 21 6 20 65 35 47 54 59 66 61 61 50 44 37 41 40 38
43 38 35 50 59 60 59 61 61 60 59 62 62 58 58 58 58 75 89 63 17 58 26 9 5 16 64 26 24 41 28 32 25 18 11 13 18 12 7 24 54 43 35 37 43 53 45 44 43 41 35 38 41 43
53 44 39 39 48 57 61 62 62 62 60 61 63 62 60 67 69 84 79 78 76 44 10 10 16 9 45 23 17 20 19 6 20 8 11 21 5 11 21 33 39 28 23 32 36 36 35 30 29 34 37 38 40 43
53 56 47 45 46 52 57 60 65 69 72 72 68 46 39 71 73 44 52 50 42 41 24 6 26 10 49 20 8 15 13 7 8 8 26 7 7 47 43 38 25 25 30 36 38 40 42 45 45 50 54 50 48 50
45 11 31 38 48 55 63 65 63 57 59 70 51 43 42 41 59 37 23 27 18 10 17 20 40 23 37 13 8 12 8 8 10 8 14 5 7 21 41 40 40 40 38 38 41 44 44 50 53 52 53 50 48 48
72 67 39 5 24 38 47 59 65 63 64 64 34 41 49 32 25 19 15 16 12 14 12 26 30 41 26 20 7 9 7 6 11 14 8 6 9 21 32 35 33 30 29 30 34 36 37 40 44 48 49 49 48 47
65 60 55 46 53 45 35 16 41 68 51 67 32 14 13 13 8 10 13 3 11 9 18 49 22 19 15 13 6 6 8 8 18 6 8 9 15 30 29 25 23 22 24 27 29 33 36 36 38 40 40 39 41 40
41 49 49 46 40 46 55 20 45 68 63 10 8 8 5 5 4 6 6 8 11 38 67 63 18 9 15 6 7 10 4 8 6 9 12 6 35 36 28 23 18 17 18 22 23 25 28 30 31 32 34 36 36 34
39 31 32 38 44 38 37 34 31 42 14 12 8 2 5 4 6 2 10 7 29 65 69 31 21 14 6 9 6 8 6 7 10 11 8 27 41 33 27 20 16 15 16 19 19 21 24 26 26 25 26 27 27 25
37 24 31 39 42 37 19 18 29 16 12 11 20 4 15 3 3 13 19 11 31 53 42 22 8 8 5 10 8 10 17 14 9 7 23 43 34 27 20 14 10 11 13 12 13 16 18 19 18 17 17 17 17 15
23 31 32 28 31 35 26 3 11 19 13 10 7 19 10 11 8 8 15 14 9 15 5 7 10 6 7 7 4 8 11 5 14 37 38 29 24 19 15 12 11 11 10 10 11 11 11 10 10 10 12 8 5 3
28 30 26 22 23 23 29 25 15 17 15 18 7 12 12 16 8 12 15 26 10 9 6 5 15 7 9 11 6 6 10 25 31 29 26 23 20 17 14 13 13 9 6 4 4 4 4 4 2 1 1 4 3 5
20 22 23 19 20 11 11 17 17 9 16 9 10 17 12 11 24 19 19 21 24 20 11 5 10 5 5 2 5 15 42 26 29 28 23 20 17 15 13 11 9 7 5 4 4 4 4 4 3 3 4 5 5 8
9 13 14 16 13 7 11 14 13 16 5 7 11 11 9 10 13 20 30 27 20 11 16 10 4 3 4 12 18 35 27 30 39 39 26 21 19 15 11 8 7 6 7 7 6 6 7 7 7 8 8 8 9 11
8 6 7 8 13 22 16 11 14 12 11 10 5 7 9 12 15 23 27 29 19 13 5 9 12 18 23 25 30 31 31 31 28 16 22 26 21 18 15 13 12 11 10 10 10 10 10 9 9 10 10 9 8 7
6 4 6 15 14 14 18 20 11 7 8 8 10 13 13 5 13 18 22 26 12 8 7 9 15 19 20 21 22 21 22 21 18 15 17 16 17 16 15 14 13 11 11 12 12 12 11 11 11 10 9 8 6 5
7 8 13 17 11 15 6 8 7 11 7 5 6 6 6 7 13 15 10 9 7 8 13 14 14 16 17 17 16 15 17 16 16 14 12 13 13 13 13 13 14 13 13 13 13 13 12 12 11 10 9 8 8 8
13 14 19 17 24 4 6 13 9 9 8 6 5 5 6 8 18 8 5 3 5 7 9 12 13 13 14 14 12 15 18 18 17 14 15 15 14 14 14 15 15 15 16 15 16 15 14 13 12 11 11 12 13 14
10 25 18 15 18 12 12 9 11 8 7 6 5 4 4 10 4 5 1 2 5 6 8 10 12 11 12 14 18 19 19 17 12 12 14 16 18 18 18 18 18 17 17 16 15 14 14 13 13 13 14 15 17 18
17 19 12 6 12 8 3 7 7 2 3 5 1 7 6 5 5 3 4 4 5 8 11 12 13 14 13 14 13 13 13 13 12 13 15 17 18 19 17 17 17 16 15 16 15 14 14 14 16 17 18 20 23 27
11 8 11 16 5 4 8 9 5 7 7 4 4 6 4 5 4 5 3 6 6 7 8 9 10 10 10 10 11 12 13 14 14 13 14 17 17 16 16 16 15 14 13 14 15 16 17 17 19 22 24 26 29 34
10 14 7 17 13 15 6 5 6 4 3 6 3 6 5 8 6 5 2 2 6 8 9 10 10 10 11 13 14 14 15 16 15 15 15 16 16 15 15 15 15 14 15 16 18 20 20 21 25 29 31 31 29 32
12 9 7 10 8 11 8 4 3 3 4 3 4 3 5 6 7 10 7 7 8 9 10 10 10 12 12 13 14 15 15 15 14 15 14 12 13 13 15 16 17 18 19 20 21 22 25 29 31 33 33 35 34 33
9 11 6 5 6 4 4 6 5 4 4 5 7 8 9 8 8 6 7 10 10 10 11 12 12 12 12 12 13 12 12 13 14 14 13 13 13 12 13 15 17 19 21 22 24 26 30 33 34 38 41 42 43 44
4 5 5 5 3 2 5 8 6 7 5 5 9 9 10 11 9 6 9 12 15 15 16 15 15 14 14 13 12 11 11 12 14 16 18 18 19 19 20 21 23 25 26 27 29 31 34 36 38 40 42 43 43 47
5 7 5 4 1 1 6 9 4 4 4 4 4 6 8 8 7 4 4 15 16 16 14 15 14 11 12 14 14 13 14 15 16 16 16 17 18 21 22 23 25 27 29 31 33 36 38 41 43 44 48 49 51 55
3 4 5 3 3 3 7 13 5 7 4 4 3 5 5 6 8 4 3 7 11 13 12 11 13 15 14 13 15 16 17 18 18 19 20 22 23 25 26 27 30 33 35 37 38 40 43 47 51 53 57 61 66 69
Wind_Direction_500mb
270 265 261 260 254 250 244 240 245 247 248 243 239 241 235 237 236 227 226 223 214 223 226 213 214 200 188 203 143 157 107 164 78 153 140 200 150 219 135 183 176 161 161 194 198 210 243 243 111 175 178 177 258 297
268 264 258 253 250 251 246 242 245 247 249 245 242 239 234 232 232 236 250 218 223 219 240 220 221 220 217 215 185 172 185 161 166 120 203 102 129 64 161 222 184 228 186 180 183 202 222 187 127 348 195 309 312 306
274 262 256 254 249 249 246 244 243 245 245 248 243 238 233 228 235 236 245 235 208 209 228 198 212 215 213 215 214 169 196 180 177 154 155 177 191 118 181 240 136 258 185 195 80 257 239 271 290 288 301 323 326 314
278 262 253 248 249 246 244 242 242 244 244 243 238 236 235 232 232 235 238 242 223 207 220 223 220 213 211 207 211 211 204 191 180 177 110 136 157 188 216 221 179 210 136 185 271 288 308 286 290 293 308 316 314 302
289 260 250 245 240 243 240 236 238 241 239 237 231 234 232 231 229 238 244 246 232 211 207 182 203 212 207 208 207 209 205 197 183 142 123 199 205 122 322 60 257 186 186 167 236 263 282 286 290 293 294 299 293 293
292 264 247 242 235 237 235 235 235 236 236 232 232 232 229 228 228 228 251 249 242 221 241 163 183 191 202 204 205 201 195 193 195 175 176 194 179 177 162 213 251 258 254 258 258 276 282 286 294 297 292 281 284 276
303 287 249 239 232 230 232 236 236 237 233 233 229 230 227 228 225 219 206 214 233 221 224 125 159 179 190 188 190 189 190 186 186 174 184 165 179 202 146 246 256 261 267 269 275 286 287 283 282 276 273 276 275 277
306 293 262 237 227 228 232 236 239 239 236 233 231 231 232 236 236 232 230 227 261 194 211 156 150 148 173 159 168 185 171 177 188 192 176 168 182 186 236 240 253 255 261 265 270 270 271 276 276 278 279 281 281 285
309 281 261 242 231 231 235 240 241 238 235 231 228 230 236 234 236 232 229 229 235 226 189 159 155 160 161 136 127 139 159 152 174 167 185 162 202 209 224 232 249 240 245 249 253 266 277 261 263 275 285 290 291 290
323 262 235 236 236 236 239 241 241 238 236 233 229 225 225 228 225 220 208 208 207 230 224 176 137 149 161 142 122 123 148 154 176 206 149 184 236 233 239 235 235 241 247 256 272 276 272 275 282 287 292 291 290 287
16 34 221 228 233 239 243 244 243 240 234 212 204 203 204 194 183 191 221 181 172 185 206 150 150 134 159 137 132 152 150 157 163 219 157 192 255 221 220 226 238 248 256 262 268 273 277 281 287 288 288 289 289 287
18 40 74 84 250 251 250 245 237 228 227 211 170 171 163 184 179 213 185 147 171 182 198 148 141 129 128 134 114 142 147 125 191 145 120 226 231 176 192 208 224 239 252 259 265 268 273 276 281 285 288 290 291 291
13 17 28 31 30 32 19 208 204 204 197 158 172 152 179 206 154 161 150 208 127 170 168 138 127 119 116 108 124 135 135 191 131 123 202 224 154 177 187 198 215 231 249 259 265 272 278 281 283 286 290 292 295 297
355 3 21 26 25 29 26 98 123 143 141 99 113 167 223 82 171 163 179 159 166 159 148 136 113 122 122 125 130 123 168 101 75 157 224 222 185 174 181 193 207 235 255 264 270 274 276 280 284 289 294 297 297 297
2 356 12 27 14 18 28 34 125 140 75 80 84 176 65 219 303 78 287 137 131 141 138 124 78 96 105 123 120 114 110 168 190 214 216 166 166 173 184 191 212 242 261 271 280 281 282 285 288 289 292 295 299 300
12 358 11 15 12 14 36 61 71 106 81 69 39 52 341 156 358 32 14 60 126 136 136 87 105 97 118 130 123 180 137 197 218 203 155 156 163 172 179 188 206 235 254 274 291 293 292 293 297 304 307 307 300 291
9 16 8 6 359 6 358 68 47 52 64 57 60 42 9 59 50 343 14 356 72 138 107 111 97 146 97 84 113 178 193 212 149 135 147 155 166 166 169 188 208 223 235 255 273 284 290 297 308 317 318 317 304 270
10 13 5 360 348 346 19 32 64 58 62 31 53 10 42 40 28 23 15 28 65 62 45 125 137 118 136 143 232 162 123 111 131 139 147 154 161 163 169 188 198 201 215 234 233 242 262 271 294 328 53 74 93 120
341 358 2 5 358 8 46 38 36 82 49 34 28 16 36 64 53 35 30 54 78 84 106 54 73 97 127 100 142 148 152 149 155 150 151 150 152 160 167 171 171 172 167 169 191 210 230 240 248 186 151 144 159 137
354 343 339 3 11 57 69 46 55 81 76 63 32 23 36 28 17 25 36 45 48 41 41 36 63 78 94 117 137 148 151 149 153 144 145 153 156 157 162 179 179 164 150 156 173 182 181 187 186 174 168 170 162 156
348 330 328 357 63 65 79 45 65 76 109 93 27 47 58 31 27 23 13 13 50 35 71 57 99 115 129 135 142 153 156 160 162 169 169 164 169 171 176 182 184 181 176 183 185 193 187 191 181 166 162 165 164 159
28 61 56 45 67 67 66 44 62 68 64 61 32 35 35 27 12 11 357 41 57 41 77 131 129 130 138 144 146 155 165 170 169 165 162 167 172 174 179 188 192 189 192 195 195 198 197 190 181 176 174 180 183 190
64 63 55 36 85 56 48 50 71 29 57 34 31 47 29 8 357 0 73 59 80 82 117 132 140 144 147 151 152 157 168 181 198 189 169 167 168 176 189 194 197 194 201 204 200 199 198 197 197 201 210 223 240 257
60 50 32 35 32 57 46 33 49 57 62 45 43 51 7 326 345 43 78 29 85 118 132 140 149 152 158 160 166 194 195 196 206 188 174 175 178 187 195 196 196 195 197 200 201 201 203 208 218 231 245 258 268 274
75 11 16 6 22 35 37 20 4 46 68 16 74 21 341 341 48 42 107 243 152 155 161 168 170 174 179 183 199 205 202 205 205 188 183 183 188 189 194 198 197 199 200 201 206 211 219 230 242 253 262 269 274 283
66 12 40 338 360 56 340 65 36 84 87 69 311 292 324 77 67 239 258 179 184 182 182 181 184 189 192 196 200 200 198 193 192 196 192 190 193 187 189 198 203 204 206 212 220 231 242 252 262 267 273 283 290 290
61 346 25 26 7 31 55 46 76 80 68 64 297 5 54 87 266 250 176 191 178 178 179 183 189 190 195 193 187 188 186 183 181 188 191 187 189 190 198 206 208 215 226 233 242 249 255 262 273 279 283 287 293 295
69 31 66 359 41 34 104 46 42 51 306 356 354 30 121 175 243 344 309 197 188 189 189 190 191 189 188 185 181 180 183 182 182 188 192 194 199 208 213 218 227 233 241 248 257 262 266 276 282 284 287 291 295 294
48 19 10 22 35 42 49 110 226 10 349 344 117 277 269 265 288 305 283 230 210 203 200 199 201 191 186 185 182 180 181 186 193 197 197 205 215 223 231 239 246 252 258 264 269 275 280 283 285 288 292 295 297 297
32 19 69 47 71 8 351 7 6 341 306 289 295 292 282 289 310 282 226 214 209 202 202 199 196 193 191 190 191 193 201 208 210 213 221 236 249 251 254 260 263 265 270 275 278 281 285 288 291 294 299 303 306 305
29 21 71 61 134 89 352 345 324 323 297 286 281 270 292 307 307 263 222 207 207 209 205 200 200 202 204 204 208 217 228 236 241 246 250 254 259 264 268 269 271 274 278 282 285 287 288 289 291 293 294 296 298 301
27 40 103 64 321 325 343 343 305 309 291 290 290 294 306 301 287 282 249 216 217 215 206 209 208 209 220 224 231 238 245 250 254 257 262 264 267 269 273 277 279 281 283 285 287 290 292 294 295 297 299 301 304 306
72 55 54 71 27 8 340 350 352 328 254 279 273 286 284 279 263 285 265 218 201 196 201 205 216 229 238 247 254 256 257 258 261 265 267 269 271 274 277 280 283 286 288 290 290 292 294 296 299 301 303 305 306 307
Wind_Speed_850mb
57 56 59 56 57 55 52 49 48 48 50 53 54 55 68 55 67 48 79 69 82 32 33 48 58 38 21 35 9 14 13 5 3 7 7 8 6 10 5 10 13 15 16 10 7 8 22 32 5 15 7 2 4 16
60 60 58 62 60 54 54 51 50 52 52 54 56 54 55 69 59 59 56 78 75 57 19 66 52 63 62 55 44 41 11 15 21 6 1 6 1 2 9 6 5 3 13 10 18 14 18 6 11 15 5 8 32 36
62 64 65 62 61 61 61 58 55 54 55 58 58 56 60 58 63 55 58 50 72 73 40 40 66 72 64 57 50 25 15 17 21 14 15 5 6 6 7 11 2 9 6 7 7 16 18 26 24 15 32 20 35 39
64 69 66 64 60 59 59 58 56 55 55 57 58 55 57 59 58 56 64 57 62 35 18 25 76 72 75 74 59 52 36 41 23 21 7 5 5 12 5 6 8 14 6 6 7 14 14 26 31 38 39 52 56 51
58 62 68 66 61 59 58 58 55 53 54 57 58 57 55 55 58 59 58 61 58 40 9 15 47 78 78 74 76 63 50 45 41 12 5 5 7 5 4 3 6 14 9 5 8 17 13 34 62 69 70 73 59 56
51 54 62 67 65 59 55 57 54 54 54 55 56 55 57 57 52 50 41 66 72 68 13 7 23 52 76 80 77 70 60 49 38 20 9 11 11 17 5 7 33 49 34 45 46 56 47 53 57 61 62 57 54 40
44 40 51 59 65 60 57 56 56 56 59 59 56 56 54 54 60 70 24 15 35 58 20 6 6 34 78 73 63 54 58 46 28 19 15 15 15 21 6 20 65 35 47 54 59 66 61 61 50 44 37 41 40 38
43 38 35 50 59 60 59 61 61 60 59 62 62 58 58 58 58 75 89 63 17 58 26 9 5 16 64 26 24 41 28 32 25 18 11 13 18 12 7 24 54 43 35 37 43 53 45 44 43 41 35 38 41 43
53 44 39 39 48 57 61 62 62 62 60 61 63 62 60 67 69 84 79 78 76 44 10 10 16 9 45 23 17 20 19 6 20 8 11 21 5 11 21 33 39 28 23 32 36 36 35 30 29 34 37 38 40 43
53 56 47 45 46 52 57 60 65 69 72 72 68 46 39 71 73 44 52 50 42 41 24 6 26 10 49 20 8 15 13 7 8 8 26 7 7 47 43 38 25 25 30 36 38 40 42 45 45 50 54 50 48 50
45 11 31 38 48 55 63 65 63 57 59 70 51 43 42 41 59 37 23 27 18 10 17 20 40 23 37 13 8 12 8 8 10 8 14 5 7 21 41 40 40 40 38 38 41 44 44 50 53 52 53 50 48 48
72 67 39 5 24 38 47 59 65 63 64 64 34 41 49 32 25 19 15 16 12 14 12 26 30 41 26 20 7 9 7 6 11 14 8 6 9 21 32 35 33 30 29 30 34 36 37 40 44 48 49 49 48 47
65 60 55 46 53 45 35 16 41 68 51 67 32 14 13 13 8 10 13 3 11 9 18 49 22 19 15 13 6 6 8 8 18 6 8 9 15 30 29 25 23 22 24 27 29 33 36 36 38 40 40 39 41 40
41 49 49 46 40 46 55 20 45 68 63 10 8 8 5 5 4 6 6 8 11 38 67 63 18 9 15 6 7 10 4 8 6 9 12 6 35 36 28 23 18 17 18 22 23 25 28 30 31 32 34 36 36 34
39 31 32 38 44 38 37 34 31 42 14 12 8 2 5 4 6 2 10 7 29 65 69 31 21 14 6 9 6 8 6 7 10 11 8 27 41 33 27 20 16 15 16 19 19 21 24 26 26 25 26 27 27 25
37 24 31 39 42 37 19 18 29 16 12 11 20 4 15 3 3 13 19 11 31 53 42 22 8 8 5 10 8 10 17 14 9 7 23 43 34 27 20 14 10 11 13 12 13 16 18 19 18 17 17 17 17 15
23 31 32 28 31 35 26 3 11 19 13 10 7 19 10 11 8 8 15 14 9 15 5 7 10 6 7 7 4 8 11 5 14 37 38 29 24 19 15 12 11 11 10 10 11 11 11 10 10 10 12 8 5 3
28 30 26 22 23 23 29 25 15 17 15 18 7 12 12 16 8 12 15 26 10 9 6 5 15 7 9 11 6 6 10 25 31 29 26 23 20 17 14 13 13 9 6 4 4 4 4 4 2 1 1 4 3 5
20 22 23 19 20 11 11 17 17 9 16 9 10 17 12 11 24 19 19 21 24 20 11 5 10 5 5 2 5 15 42 26 29 28 23 20 17 15 13 11 9 7 5 4 4 4 4 4 3 3 4 5 5 8
9 13 14 16 13 7 11 14 13 16 5 7 11 11 9 10 13 20 30 27 20 11 16 10 4 3 4 12 18 35 27 30 39 39 26 21 19 15 11 8 7 6 7 7 6 6 7 7 7 8 8 8 9 11
8 6 7 8 13 22 16 11 14 12 11 10 5 7 9 12 15 23 27 29 19 13 5 9 12 18 23 25 30 31 31 31 28 16 22 26 21 18 15 13 12 11 10 10 10 10 10 9 9 10 10 9 8 7
6 4 6 15 14 14 18 20 11 7 8 8 10 13 13 5 13 18 22 26 12 8 7 9 15 19 20 21 22 21 22 21 18 15 17 16 17 16 15 14 13 11 11 12 12 12 11 11 11 10 9 8 6 5
7 8 13 17 11 15 6 8 7 11 7 5 6 6 6 7 13 15 10 9 7 8 13 14 14 16 17 17 16 15 17 16 16 14 12 13 13 13 13 13 14 13 13 13 13 13 12 12 11 10 9 8 8 8
13 14 19 17 24 4 6 13 9 9 8 6 5 5 6 8 18 8 5 3 5 7 9 12 13 13 14 14 12 15 18 18 17 14 15 15 14 14 14 15 15 15 16 15 16 15 14 13 12 11 11 12 13 14
10 25 18 15 18 12 12 9 11 8 7 6 5 4 4 10 4 5 1 2 5 6 8 10 12 11 12 14 18 19 19 17 12 12 14 16 18 18 18 18 18 17 17 16 15 14 14 13 13 13 14 15 17 18
17 19 12 6 12 8 3 7 7 2 3 5 1 7 6 5 5 3 4 4 5 8 11 12 13 14 13 14 13 13 13 13 12 13 15 17 18 19 17 17 17 16 15 16 15 14 14 14 16 17 18 20 23 27
11 8 11 16 5 4 8 9 5 7 7 4 4 6 4 5 4 5 3 6 6 7 8 9 10 10 10 10 11 12 13 14 14 13 14 17 17 16 16 16 15 14 13 14 15 16 17 17 19 22 24 26 29 34
10 14 7 17 13 15 6 5 6 4 3 6 3 6 5 8 6 5 2 2 6 8 9 10 10 10 11 13 14 14 15 16 15 15 15 16 16 15 15 15 15 14 15 16 18 20 20 21 25 29 31 31 29 32
12 9 7 10 8 11 8 4 3 3 4 3 4 3 5 6 7 10 7 7 8 9 10 10 10 12 12 13 14 15 15 15 14 15 14 12 13 13 15 16 17 18 19 20 21 22 25 29 31 33 33 35 34 33
9 11 6 5 6 4 4 6 5 4 4 5 7 8 9 8 8 6 7 10 10 10 11 12 12 12 12 12 13 12 12 13 14 14 13 13 13 12 13 15 17 19 21 22 24 26 30 33 34 38 41 42 43 44
4 5 5 5 3 2 5 8 6 7 5 5 9 9 10 11 9 6 9 12 15 15 16 15 15 14 14 13 12 11 11 12 14 16 18 18 19 19 20 21 23 25 26 27 29 31 34 36 38 40 42 43 43 47
5 7 5 4 1 1 6 9 4 4 4 4 4 6 8 8 7 4 4 15 16 16 14 15 14 11 12 14 14 13 14 15 16 16 16 17 18 21 22 23 25 27 29 31 33 36 38 41 43 44 48 49 51 55
3 4 5 3 3 3 7 13 5 7 4 4 3 5 5 6 8 4 3 7 11 13 12 11 13 15 14 13 15 16 17 18 18 19 20 22 23 25 26 27 30 33 35 37 38 40 43 47 51 53 57 61 66 69
Wind_Direction_850mb
270 265 261 260 254 250 244 240 245 247 248 243 239 241 235 237 236 227 226 223 214 223 226 213 214 200 188 203 143 157 107 164 78 153 140 200 150 219 135 183 176 161 161 194 198 210 243 243 111 175 178 177 258 297
268 264 258 253 250 251 246 242 245 247 249 245 242 239 234 232 232 236 250 218 223 219 240 220 221 220 217 215 185 172 185 161 166 120 203 102 129 64 161 222 184 228 186 180 183 202 222 187 127 348 195 309 312 306
274 262 256 254 249 249 246 244 243 245 245 248 243 238 233 228 235 236 245 235 208 209 228 198 212 215 213 215 214 169 196 180 177 154 155 177 191 118 181 240 136 258 185 195 80 257 239 271 290 288 301 323 326 314
278 262 253 248 249 246 244 242 242 244 244 243 238 236 235 232 232 235 238 242 223 207 220 223 220 213 211 207 211 211 204 191 180 177 110 136 157 188 216 221 179 210 136 185 271 288 308 286 290 293 308 316 314 302
289 260 250 245 240 243 240 236 238 241 239 237 231 234 232 231 229 238 244 246 232 211 207 182 203 212 207 208 207 209 205 197 183 142 123 199 205 122 322 60 257 186 186 167 236 263 282 286 290 293 294 299 293 293
292 264 247 242 235 237 235 235 235 236 236 232 232 232 229 228 228 228 251 249 242 221 241 163 183 191 202 204 205 201 195 193 195 175 176 194 179 177 162 213 251 258 254 258 258 276 282 286 294 297 292 281 284 276
303 287 249 239 232 230 232 236 236 237 233 233 229 230 227 228 225 219 206 214 233 221 224 125 159 179 190 188 190 189 190 186 186 174 184 165 179 202 146 246 256 261 267 269 275 286 287 283 282 276 273 276 275 277
306 293 262 237 227 228 232 236 239 239 236 233 231 231 232 236 236 232 230 227 261 194 211 156 150 148 173 159 168 185 171 177 188 192 176 168 182 186 236 240 253 255 261 265 270 270 271 276 276 278 279 281 281 285
309 281 261 242 231 231 235 240 241 238 235 231 228 230 236 234 236 232 229 229 235 226 189 159 155 160 161 136 127 139 159 152 174 167 185 162 202 209 224 232 249 240 245 249 253 266 277 261 263 275 285 290 291 290
323 262 235 236 236 236 239 241 241 238 236 233 229 225 225 228 225 220 208 208 207 230 224 176 137 149 161 142 122 123 148 154 176 206 149 184 236 233 239 235 235 241 247 256 272 276 272 275 282 287 292 291 290 287
16 34 221 228 233 239 243 244 243 240 234 212 204 203 204 194 183 191 221 181 172 185 206 150 150 134 159 137 132 152 150 157 163 219 157 192 255 221 220 226 238 248 256 262 268 273 277 281 287 288 288 289 289 287
18 40 74 84 250 251 250 245 237 228 227 211 170 171 163 184 179 213 185 147 171 182 198 148 141 129 128 134 114 142 147 125 191 145 120 226 231 176 192 208 224 239 252 259 265 268 273 276 281 285 288 290 291 291
13 17 28 31 30 32 19 208 204 204 197 158 172 152 179 206 154 161 150 208 127 170 168 138 127 119 116 108 124 135 135 191 131 123 202 224 154 177 187 198 215 231 249 259 265 272 278 281 283 286 290 292 295 297
355 3 21 26 25 29 26 98 123 143 141 99 113 167 223 82 171 163 179 159 166 159 148 136 113 122 122 125 130 123 168 101 75 157 224 222 185 174 181 193 207 235 255 264 270 274 276 280 284 289 294 297 297 297
2 356 12 27 14 18 28 34 125 140 75 80 84 176 65 219 303 78 287 137 131 141 138 124 78 96 105 123 120 114 110 168 190 214 216 166 166 173 184 191 212 242 261 271 280 281 282 285 288 289 292 295 299 300
12 358 11 15 12 14 36 61 71 106 81 69 39 52 341 156 358 32 14 60 126 136 136 87 105 97 118 130 123 180 137 197 218 203 155 156 163 172 179 188 206 235 254 274 291 293 292 293 297 304 307 307 300 291
9 16 8 6 359 6 358 68 47 52 64 57 60 42 9 59 50 343 14 356 72 138 107 111 97 146 97 84 113 178 193 212 149 135 147 155 166 166 169 188 208 223 235 255 273 284 290 297 308 317 318 317 304 270
10 13 5 360 348 346 19 32 64 58 62 31 53 10 42 40 28 23 15 28 65 62 45 125 137 118 136 143 232 162 123 111 131 139 147 154 161 163 169 188 198 201 215 234 233 242 262 271 294 328 53 74 93 120
341 358 2 5 358 8 46 38 36 82 49 34 28 16 36 64 53 35 30 54 78 84 106 54 73 97 127 100 142 148 152 149 155 150 151 150 152 160 167 171 171 172 167 169 191 210 230 240 248 186 151 144 159 137
354 343 339 3 11 57 69 46 55 81 76 63 32 23 36 28 17 25 36 45 48 41 41 36 63 78 94 117 137 148 151 149 153 144 145 153 156 157 162 179 179 164 150 156 173 182 181 187 186 174 168 170 162 156
348 330 328 357 63 65 79 45 65 76 109 93 27 47 58 31 27 23 13 13 50 35 71 57 99 115 129 135 142 153 156 160 162 169 169 164 169 171 176 182 184 181 176 183 185 193 187 191 181 166 162 165 164 159
28 61 56 45 67 67 66 44 62 68 64 61 32 35 35 27 12 11 357 41 57 41 77 131 129 130 138 144 146 155 165 170 169 165 162 167 172 174 179 188 192 189 192 195 195 198 197 190 181 176 174 180 183 190
64 63 55 36 85 56 48 50 71 29 57 34 31 47 29 8 357 0 73 59 80 82 117 132 140 144 147 151 152 157 168 181 198 189 169 167 168 176 189 194 197 194 201 204 200 199 198 197 197 201 210 223 240 257
60 50 32 35 32 57 46 33 49 57 62 45 43 51 7 326 345 43 78 29 85 118 132 140 149 152 158 160 166 194 195 196 206 188 174 175 178 187 195 196 196 195 197 200 201 201 203 208 218 231 245 258 268 274
75 11 16 6 22 35 37 20 4 46 68 16 74 21 341 341 48 42 107 243 152 155 161 168 170 174 179 183 199 205 202 205 205 188 183 183 188 189 194 198 197 199 200 201 206 211 219 230 242 253 262 269 274 283
66 12 40 338 360 56 340 65 36 84 87 69 311 292 324 77 67 239 258 179 184 182 182 181 184 189 192 196 200 200 198 193 192 196 192 190 193 187 189 198 203 204 206 212 220 231 242 252 262 267 273 283 290 290
61 346 25 26 7 31 55 46 76 80 68 64 297 5 54 87 266 250 176 191 178 178 179 183 189 190 195 193 187 188 186 183 181 188 191 187 189 190 198 206 208 215 226 233 242 249 255 262 273 279 283 287 293 295
69 31 66 359 41 34 104 46 42 51 306 356 354 30 121 175 243 344 309 197 188 189 189 190 191 189 188 185 181 180 183 182 182 188 192 194 199 208 213 218 227 233 241 248 257 262 266 276 282 284 287 291 295 294
48 19 10 22 35 42 49 110 226 10 349 344 117 277 269 265 288 305 283 230 210 203 200 199 201 191 186 185 182 180 181 186 193 197 197 205 215 223 231 239 246 252 258 264 269 275 280 283 285 288 292 295 297 297
32 19 69 47 71 8 351 7 6 341 306 289 295 292 282 289 310 282 226 214 209 202 202 199 196 193 191 190 191 193 201 208 210 213 221 236 249 251 254 260 263 265 270 275 278 281 285 288 291 294 299 303 306 305
29 21 71 61 134 89 352 345 324 323 297 286 281 270 292 307 307 263 222 207 207 209 205 200 200 202 204 204 208 217 228 236 241 246 250 254 259 264 268 269 271 274 278 282 285 287 288 289 291 293 294 296 298 301
27 40 103 64 321 325 343 343 305 309 291 290 290 294 306 301 287 282 249 216 217 215 206 209 208 209 220 224 231 238 245 250 254 257 262 264 267 269 273 277 279 281 283 285 287 290 292 294 295 297 299 301 304 306
72 55 54 71 27 8 340 350 352 328 254 279 273 286 284 279 263 285 265 218 201 196 201 205 216 229 238 247 254 256 257 258 261 265 267 269 271 274 277 280 283 286 288 290 290 292 294 296 299 301 303 305 306 307